Regional Weather Roundup
Issued by NWS Burlington, VT

Home | Current Version | Previous Version | Text Only | Print | Product List | Glossary On
Versions: 1 2 3 4 5 6 7 8 9 10 11 12 13 14 15 16 17 18 19 20 21 22 23 24 25 26 27 28 29 30 31 32 33 34 35 36
000
ASUS41 KBTV 212310
RWRBTV
VERMONT REGIONAL WEATHER ROUNDUP
NATIONAL WEATHER SERVICE BURLINGTON VT
700 PM EDT TUE OCT 21 2014

NOTE: "FAIR" INDICATES FEW OR NO CLOUDS BELOW 12,000 FEET WITH NO
SIGNIFICANT WEATHER AND/OR OBSTRUCTIONS TO VISIBILITY.

* THESE REPORTS ARE NOT UNDER NWS QUALITY CONTROL AND/OR DO NOT
  REPORT WEATHER SUCH AS PRECIPITATION AND FOG.

VTZ001>019-220000-
_____VERMONT_____


CITY           SKY/WX    TMP DP  RH WIND       PRES   REMARKS
BURLINGTON     LGT RAIN  49  46  90 N6        30.03R
MONTPELIER     CLOUDY    45  45 100 N3        30.06R FOG
MORRISVILLE    LGT RAIN  47  45  93 CALM      30.05S FOG
ST. JOHNSBURY*   N/A     48  47  96 MISG      30.02R
LYNDONVILLE*   DRIZZLE   47  43  87 NW3       30.05R
MIDDLEBURY*    LGT RAIN  48  48 100 CALM      30.00R
RUTLAND*       CLOUDY    48  46  93 CALM      29.99R
SPRINGFIELD    CLOUDY    49  46  90 N5        29.99R
HIGHGATE*      DRIZZLE   46  45  97 N8        30.05R
NEWPORT*       RAIN      46  45  97 N8        30.06R
BENNINGTON     CLOUDY    51  46  83 NE6       29.95R

_____LAKE CHAMPLAIN_____


CITY           SKY/WX    TMP DP  RH WIND       PRES   REMARKS

$$

NYZ007-026>031-035-052-083-220000-
_____NORTHERN NEW YORK_____


CITY           SKY/WX    TMP DP  RH WIND       PRES   REMARKS
PLATTSBURGH    CLOUDY    46  44  93 N14       30.05R
SARANAC LAKE   CLOUDY    42  41  96 NE10      29.99R FOG
MASSENA        CLOUDY    45  37  73 NE13      30.09R
WATERTOWN      CLOUDY    47  41  80 NE14      30.01R
FT DRUM        CLOUDY    44  44 100 NE16      30.00R
ALBANY         CLOUDY    53  49  86 N6        29.95R
GLENS FALLS    CLOUDY    50  46  86 N8        29.98R

$$
NHZ002-005-011-220000-
_____NEW HAMPSHIRE_____


CITY           SKY/WX    TMP DP  RH WIND       PRES   REMARKS
LEBANON        CLOUDY    49  45  86 N7        30.00R FOG
KEENE          CLOUDY    52  43  71 N8        29.96S
MT WASHINGTON  LGTSLEET  32  32 100 SE23        N/A  VSB 0
PLYMOUTH       CLOUDY    49  49 100 CALM      30.01R
WHITEFIELD     CLOUDY    48  43  82 E8        30.03R

$$

_____REGIONAL QUEBEC LOCATIONS_____


CITY           SKY/WX    TMP DP  RH WIND       PRES   REMARKS
QUEBEC CITY    MOCLDY    45  28  53 NE10G20   30.19R
SHERBROOKE     LGT RAIN  45  43  93 NE9       30.09R

_____REGIONAL ONTARIO LOCATIONS_____


CITY           SKY/WX    TMP DP  RH WIND       PRES   REMARKS
OTTAWA         CLOUDY    45  37  76 N12       30.11R

______KEY______
VSB  - VISIBILITY IN MILES
WCI  - WIND CHILL INDEX
HX   - HEAT INDEX
$$
NNNN



USA.gov is the U.S. government's official web portal to all federal, state and local government web resources and services.